| time (UTC) | temp F | wind direction | speed knots | gust knots | rain 1hr in | rain 24hr in | rain mn in | humidity % | barometer mb |
| 20260504203548 | 78 | 227 | 4.3 | 14.8 | 0.00 | 0.00 | 0.00 | 34 | 996.9 |
| 20260504203054 | 78 | 229 | 6.1 | 14.8 | 0.00 | 0.00 | 0.00 | 34 | 996.8 |
| 20260504202548 | 79 | 221 | 3.5 | 10.4 | 0.00 | 0.00 | 0.00 | 32 | 997.0 |
| 20260504202046 | 79 | 216 | 4.3 | 9.6 | 0.00 | 0.00 | 0.00 | 30 | 997.0 |
| 20260504201554 | 79 | 234 | 2.6 | 8.7 | 0.00 | 0.00 | 0.00 | 34 | 997.0 |
| 20260504201047 | 80 | 223 | 1.7 | 7.0 | 0.00 | 0.00 | 0.00 | 32 | 997.3 |
| 20260504200546 | 79 | 257 | 2.6 | 7.8 | 0.00 | 0.00 | 0.00 | 32 | 997.3 |
| 20260504200052 | 78 | 194 | 2.6 | 10.4 | 0.00 | 0.00 | 0.00 | 31 | 997.2 |
| 20260504195546 | 77 | 209 | 3.5 | 10.4 | 0.00 | 0.00 | 0.00 | 33 | 997.2 |
| 20260504195047 | 78 | 199 | 4.3 | 10.4 | 0.00 | 0.00 | 0.00 | 33 | 997.2 |
| 20260504194556 | 78 | 215 | 5.2 | 12.2 | 0.00 | 0.00 | 0.00 | 35 | 997.4 |
| 20260504194047 | 78 | 249 | 3.5 | 12.2 | 0.00 | 0.00 | 0.00 | 32 | 997.4 |
| 20260504193548 | 78 | 215 | 4.3 | 13.9 | 0.00 | 0.00 | 0.00 | 32 | 997.4 |
| 20260504193050 | 78 | 248 | 5.2 | 13.9 | 0.00 | 0.00 | 0.00 | 34 | 997.4 |
| 20260504192546 | 77 | 199 | 6.1 | 13.9 | 0.00 | 0.00 | 0.00 | 32 | 997.4 |
| 20260504192047 | 77 | 184 | 3.5 | 10.4 | 0.00 | 0.00 | 0.00 | 32 | 997.5 |
| 20260504191601 | 78 | 271 | 3.5 | 9.6 | 0.00 | 0.00 | 0.00 | 30 | 997.5 |
| 20260504191044 | 77 | 262 | 3.5 | 12.2 | 0.00 | 0.00 | 0.00 | 32 | 997.6 |
| 20260504190544 | 76 | 204 | 6.1 | 12.2 | 0.00 | 0.00 | 0.00 | 35 | 997.5 |
| 20260504190050 | 77 | 211 | 6.1 | 12.2 | 0.00 | 0.00 | 0.00 | 30 | 997.5 |
| 20260504185543 | 78 | 209 | 4.3 | 13.0 | 0.00 | 0.00 | 0.00 | 32 | 997.7 |
| 20260504185042 | 77 | 252 | 3.5 | 13.0 | 0.00 | 0.00 | 0.00 | 35 | 997.6 |
| 20260504184550 | 76 | 259 | 6.1 | 13.0 | 0.00 | 0.00 | 0.00 | 36 | 997.8 |
| 20260504184044 | 77 | 224 | 6.1 | 13.0 | 0.00 | 0.00 | 0.00 | 31 | 997.8 |
| 20260504183546 | 77 | 232 | 3.5 | 11.3 | 0.00 | 0.00 | 0.00 | 35 | 997.9 |
| 20260504183053 | 77 | 264 | 3.5 | 8.7 | 0.00 | 0.00 | 0.00 | 35 | 998.0 |
| 20260504182545 | 76 | 192 | 2.6 | 8.7 | 0.00 | 0.00 | 0.00 | 35 | 998.0 |
| 20260504182047 | 76 | 217 | 4.3 | 13.0 | 0.00 | 0.00 | 0.00 | 37 | 998.0 |
| 20260504181552 | 76 | 208 | 3.5 | 13.0 | 0.00 | 0.00 | 0.00 | 36 | 998.1 |
| 20260504181045 | 75 | 231 | 4.3 | 9.6 | 0.00 | 0.00 | 0.00 | 33 | 998.2 |
| 20260504180547 | 75 | 208 | 5.2 | 15.6 | 0.00 | 0.00 | 0.00 | 35 | 998.1 |
| 20260504180055 | 75 | 211 | 4.3 | 15.6 | 0.00 | 0.00 | 0.00 | 35 | 998.2 |
| 20260504175548 | 75 | 204 | 4.3 | 11.3 | 0.00 | 0.00 | 0.00 | 34 | 998.1 |
| 20260504175048 | 75 | 217 | 4.3 | 15.6 | 0.00 | 0.00 | 0.00 | 34 | 998.3 |
| 20260504174550 | 75 | 245 | 4.3 | 15.6 | 0.00 | 0.00 | 0.00 | 37 | 998.3 |
| 20260504174043 | 75 | 214 | 2.6 | 12.2 | 0.00 | 0.00 | 0.00 | 34 | 998.4 |
| 20260504173545 | 74 | 263 | 5.2 | 13.0 | 0.00 | 0.00 | 0.00 | 37 | 998.6 |
| 20260504173052 | 74 | 184 | 6.1 | 13.0 | 0.00 | 0.00 | 0.00 | 37 | 998.6 |
| 20260504172542 | 75 | 191 | 3.5 | 11.3 | 0.00 | 0.00 | 0.00 | 35 | 998.7 |
| 20260504172048 | 74 | 188 | 4.3 | 11.3 | 0.00 | 0.00 | 0.00 | 34 | 998.9 |
| 20260504171558 | 73 | 198 | 4.3 | 12.2 | 0.00 | 0.00 | 0.00 | 39 | 998.9 |
| 20260504171044 | 73 | 212 | 7.0 | 13.9 | 0.00 | 0.00 | 0.00 | 36 | 999.0 |
| 20260504170548 | 73 | 203 | 4.3 | 13.9 | 0.00 | 0.00 | 0.00 | 35 | 998.9 |
| 20260504151048 | 70 | 217 | 4.3 | 9.6 | 0.00 | 0.00 | 0.00 | 38 | 1000.5 |
| 20260504150547 | 69 | 237 | 4.3 | 11.3 | 0.00 | 0.00 | 0.00 | 37 | 1000.5 |
| 20260504150108 | 68 | 194 | 6.1 | 11.3 | 0.00 | 0.00 | 0.00 | 42 | 1000.4 |
| 20260504141045 | 63 | 231 | 3.5 | 8.7 | 0.00 | 0.00 | 0.00 | 51 | 1000.9 |
| 20260504140545 | 63 | 190 | 4.3 | 8.7 | 0.00 | 0.00 | 0.00 | 52 | 1001.0 |
| 20260504130543 | 57 | 211 | 2.6 | 6.1 | 0.00 | 0.00 | 0.00 | 65 | 1001.6 |
| 20260504110545 | 46 | 209 | 0.9 | 3.5 | 0.00 | 0.00 | 0.00 | 89 | 1001.7 |
| 20260504100540 | 46 | 0 | 0.0 | 0.0 | 0.00 | 0.00 | 0.00 | 87 | 1001.8 |
| 20260504081554 | 50 | 0 | 0.0 | 0.0 | 0.00 | 0.00 | 0.00 | 76 | 1002.7 |
| 20260504081041 | 50 | 0 | 0.0 | 0.0 | 0.00 | 0.00 | 0.00 | 76 | 1002.8 |
| 20260504080543 | 50 | 0 | 0.0 | 0.9 | 0.00 | 0.00 | 0.00 | 76 | 1002.6 |
| 20260504080109 | 50 | 0 | 0.0 | 0.9 | 0.00 | 0.00 | 0.00 | 77 | 1002.7 |
| 20260504050546 | 54 | 0 | 0.0 | 0.0 | 0.00 | 0.00 | 0.00 | 72 | 1004.0 |
| 20260504045544 | 55 | 0 | 0.0 | 0.0 | 0.00 | 0.00 | 0.00 | 70 | 1004.0 |
| 20260504045047 | 55 | 0 | 0.0 | 0.0 | 0.00 | 0.00 | 0.00 | 69 | 1004.1 |
| 20260504044552 | 55 | 0 | 0.0 | 0.0 | 0.00 | 0.00 | 0.00 | 68 | 1004.2 |
| 20260504044048 | 55 | 0 | 0.0 | 1.7 | 0.00 | 0.00 | 0.00 | 67 | 1004.0 |
| 20260504043547 | 56 | 0 | 0.0 | 2.6 | 0.00 | 0.00 | 0.00 | 68 | 1004.1 |
| 20260504043051 | 56 | 0 | 0.0 | 2.6 | 0.00 | 0.00 | 0.00 | 67 | 1003.9 |
| 20260504042546 | 56 | 211 | 0.9 | 2.6 | 0.00 | 0.00 | 0.00 | 68 | 1004.0 |
| 20260504042045 | 56 | 213 | 0.9 | 2.6 | 0.00 | 0.00 | 0.00 | 68 | 1004.0 |
| 20260504041549 | 56 | 0 | 0.9 | 1.7 | 0.00 | 0.00 | 0.00 | 68 | 1004.0 |
| 20260504041046 | 56 | 0 | 0.0 | 1.7 | 0.00 | 0.00 | 0.00 | 68 | 1004.0 |
| 20260504040549 | 55 | 0 | 0.0 | 1.7 | 0.00 | 0.00 | 0.00 | 68 | 1004.0 |
| 20260504040114 | 55 | 213 | 0.0 | 1.7 | 0.00 | 0.00 | 0.00 | 70 | 1004.3 |
| 20260504035545 | 54 | 0 | 0.0 | 1.7 | 0.00 | 0.00 | 0.00 | 73 | 1004.1 |
| 20260504035042 | 54 | 0 | 0.0 | 0.0 | 0.00 | 0.00 | 0.00 | 78 | 1004.2 |
| 20260504034550 | 55 | 0 | 0.0 | 0.0 | 0.00 | 0.00 | 0.00 | 76 | 1004.2 |
| 20260504034042 | 55 | 0 | 0.0 | 0.0 | 0.00 | 0.00 | 0.00 | 77 | 1004.2 |
| 20260504033542 | 55 | 0 | 0.0 | 0.0 | 0.00 | 0.00 | 0.00 | 74 | 1004.2 |
| 20260504033050 | 55 | 0 | 0.0 | 0.0 | 0.00 | 0.00 | 0.00 | 72 | 1004.3 |
| 20260504032541 | 56 | 0 | 0.0 | 0.0 | 0.00 | 0.00 | 0.00 | 75 | 1004.3 |
| 20260504032042 | 56 | 0 | 0.0 | 0.0 | 0.00 | 0.00 | 0.00 | 72 | 1004.3 |
| 20260504031556 | 57 | 0 | 0.0 | 1.7 | 0.00 | 0.00 | 0.00 | 72 | 1004.4 |
| 20260504031041 | 57 | 0 | 0.0 | 1.7 | 0.00 | 0.00 | 0.00 | 72 | 1004.4 |
| 20260504030544 | 57 | 0 | 0.0 | 1.7 | 0.00 | 0.00 | 0.00 | 71 | 1004.3 |
| 20260504030054 | 56 | 0 | 0.0 | 2.6 | 0.00 | 0.00 | 0.00 | 72 | 1004.3 |
| 20260504025544 | 55 | 210 | 0.9 | 2.6 | 0.00 | 0.00 | 0.00 | 74 | 1004.3 |
| 20260504025045 | 55 | 207 | 0.9 | 3.5 | 0.00 | 0.00 | 0.00 | 78 | 1004.3 |
| 20260504024550 | 55 | 207 | 0.9 | 3.5 | 0.00 | 0.00 | 0.00 | 79 | 1004.3 |
| 20260504024042 | 55 | 194 | 0.9 | 3.5 | 0.00 | 0.00 | 0.00 | 80 | 1004.3 |
| 20260504023542 | 55 | 0 | 0.0 | 0.9 | 0.00 | 0.00 | 0.00 | 80 | 1004.3 |
| 20260504023100 | 55 | 0 | 0.0 | 0.0 | 0.00 | 0.00 | 0.00 | 78 | 1004.3 |
| 20260504022546 | 55 | 0 | 0.0 | 0.0 | 0.00 | 0.00 | 0.00 | 79 | 1004.2 |
| 20260504022045 | 55 | 0 | 0.0 | 0.0 | 0.00 | 0.00 | 0.00 | 77 | 1004.1 |
| 20260504021554 | 56 | 0 | 0.0 | 0.0 | 0.00 | 0.00 | 0.00 | 75 | 1004.2 |
| 20260504021041 | 56 | 0 | 0.0 | 0.0 | 0.00 | 0.00 | 0.00 | 73 | 1004.1 |
| 20260504020544 | 56 | 0 | 0.0 | 0.9 | 0.00 | 0.00 | 0.00 | 74 | 1004.1 |
| 20260504020051 | 57 | 0 | 0.0 | 0.9 | 0.00 | 0.00 | 0.00 | 77 | 1004.2 |
| 20260504015544 | 57 | 0 | 0.0 | 0.0 | 0.00 | 0.00 | 0.00 | 76 | 1004.1 |
| 20260504015044 | 58 | 0 | 0.0 | 0.0 | 0.00 | 0.00 | 0.00 | 75 | 1004.0 |
| 20260504014559 | 58 | 0 | 0.0 | 0.0 | 0.00 | 0.00 | 0.00 | 70 | 1004.2 |
| 20260504014042 | 59 | 0 | 0.0 | 0.0 | 0.00 | 0.00 | 0.00 | 66 | 1004.2 |
| 20260504013542 | 59 | 0 | 0.0 | 0.0 | 0.00 | 0.00 | 0.00 | 64 | 1004.3 |
| 20260504013051 | 59 | 0 | 0.0 | 0.0 | 0.00 | 0.00 | 0.00 | 67 | 1004.1 |
| 20260504012542 | 60 | 0 | 0.0 | 0.0 | 0.00 | 0.00 | 0.00 | 62 | 1004.0 |
| 20260504012043 | 61 | 0 | 0.0 | 0.0 | 0.00 | 0.00 | 0.00 | 64 | 1004.0 |
| 20260504011552 | 61 | 0 | 0.0 | 0.0 | 0.00 | 0.00 | 0.00 | 55 | 1004.1 |
| 20260504011041 | 62 | 0 | 0.0 | 0.0 | 0.00 | 0.00 | 0.00 | 55 | 1003.9 |
| 20260504010541 | 62 | 0 | 0.0 | 0.0 | 0.00 | 0.00 | 0.00 | 51 | 1004.0 |
| 20260504010055 | 62 | 0 | 0.0 | 0.9 | 0.00 | 0.00 | 0.00 | 51 | 1004.0 |
| 20260504005544 | 63 | 0 | 0.0 | 1.7 | 0.00 | 0.00 | 0.00 | 53 | 1003.9 |
| 20260504005044 | 63 | 0 | 0.0 | 1.7 | 0.00 | 0.00 | 0.00 | 52 | 1003.9 |
| 20260504004554 | 63 | 0 | 0.0 | 1.7 | 0.00 | 0.00 | 0.00 | 51 | 1003.9 |
| 20260504004047 | 64 | 0 | 0.0 | 0.9 | 0.00 | 0.00 | 0.00 | 51 | 1003.9 |
| 20260504003546 | 64 | 0 | 0.0 | 1.7 | 0.00 | 0.00 | 0.00 | 50 | 1003.9 |
| 20260504003102 | 64 | 0 | 0.0 | 1.7 | 0.00 | 0.00 | 0.00 | 49 | 1004.0 |
| 20260504002546 | 64 | 207 | 0.0 | 5.2 | 0.00 | 0.00 | 0.00 | 49 | 1003.9 |
| 20260504002047 | 65 | 0 | 0.0 | 5.2 | 0.00 | 0.00 | 0.00 | 49 | 1003.9 |
| 20260504001605 | 65 | 228 | 1.7 | 5.2 | 0.00 | 0.00 | 0.00 | 48 | 1003.9 |
| 20260504001047 | 65 | 0 | 0.0 | 6.1 | 0.00 | 0.00 | 0.00 | 48 | 1003.9 |
| 20260504000546 | 65 | 0 | 0.9 | 7.0 | 0.00 | 0.00 | 0.00 | 49 | 1004.0 |
| 20260504000130 | 65 | 0 | 2.6 | 7.0 | 0.00 | 0.00 | 0.00 | 48 | 1003.9 |
| 20260503235547 | 65 | 217 | 0.0 | 4.3 | 0.00 | 0.00 | 0.00 | 50 | 1003.8 |
| 20260503235045 | 65 | 0 | 0.9 | 6.1 | 0.00 | 0.00 | 0.00 | 50 | 1003.9 |
| 20260503234556 | 65 | 213 | 1.7 | 9.6 | 0.00 | 0.00 | 0.00 | 49 | 1004.0 |
| 20260503234046 | 65 | 0 | 1.7 | 9.6 | 0.00 | 0.00 | 0.00 | 48 | 1004.0 |
| 20260503233546 | 65 | 238 | 0.9 | 6.1 | 0.00 | 0.00 | 0.00 | 49 | 1003.9 |
| 20260503233055 | 65 | 217 | 1.7 | 6.1 | 0.00 | 0.00 | 0.00 | 49 | 1004.0 |
| 20260503232545 | 65 | 202 | 0.0 | 6.1 | 0.00 | 0.00 | 0.00 | 48 | 1004.0 |
| 20260503232045 | 65 | 223 | 0.9 | 5.2 | 0.00 | 0.00 | 0.00 | 48 | 1004.1 |
| 20260503231551 | 65 | 226 | 1.7 | 7.0 | 0.00 | 0.00 | 0.00 | 49 | 1004.2 |
| 20260503231043 | 65 | 0 | 1.7 | 7.0 | 0.00 | 0.00 | 0.00 | 49 | 1004.2 |
| 20260503230544 | 65 | 211 | 1.7 | 8.7 | 0.00 | 0.00 | 0.00 | 47 | 1004.2 |
| 20260503225545 | 66 | 185 | 2.6 | 6.1 | 0.00 | 0.00 | 0.00 | 47 | 1004.3 |
| 20260503225047 | 65 | 218 | 0.9 | 6.1 | 0.00 | 0.00 | 0.00 | 48 | 1004.3 |
| 20260503224548 | 65 | 226 | 2.6 | 7.8 | 0.00 | 0.00 | 0.00 | 47 | 1004.2 |
| 20260503224048 | 66 | 0 | 1.7 | 7.8 | 0.00 | 0.00 | 0.00 | 48 | 1004.2 |
| 20260503223547 | 66 | 209 | 1.7 | 7.8 | 0.00 | 0.00 | 0.00 | 48 | 1004.3 |
| 20260503223057 | 65 | 250 | 2.6 | 7.8 | 0.00 | 0.00 | 0.00 | 48 | 1004.5 |
| 20260503222546 | 66 | 210 | 2.6 | 7.0 | 0.00 | 0.00 | 0.00 | 48 | 1004.5 |
| 20260503222045 | 66 | 0 | 0.9 | 8.7 | 0.00 | 0.00 | 0.00 | 48 | 1004.6 |
| 20260503221557 | 65 | 207 | 0.9 | 9.6 | 0.00 | 0.00 | 0.00 | 49 | 1004.6 |
| 20260503221047 | 65 | 207 | 4.3 | 13.9 | 0.00 | 0.00 | 0.00 | 50 | 1004.5 |
| 20260503220547 | 65 | 238 | 3.5 | 13.9 | 0.00 | 0.00 | 0.00 | 48 | 1004.5 |
| 20260503220057 | 65 | 240 | 4.3 | 10.4 | 0.00 | 0.00 | 0.00 | 49 | 1004.5 |
| 20260503215545 | 65 | 250 | 1.7 | 10.4 | 0.00 | 0.00 | 0.00 | 49 | 1004.5 |
| 20260503215047 | 65 | 188 | 5.2 | 8.7 | 0.00 | 0.00 | 0.00 | 49 | 1004.5 |
| 20260503214549 | 65 | 215 | 2.6 | 10.4 | 0.00 | 0.00 | 0.00 | 50 | 1004.5 |
| 20260503214044 | 65 | 235 | 5.2 | 10.4 | 0.00 | 0.00 | 0.00 | 48 | 1004.7 |
| 20260503213547 | 65 | 228 | 3.5 | 10.4 | 0.00 | 0.00 | 0.00 | 48 | 1004.8 |
| 20260503213056 | 65 | 260 | 1.7 | 10.4 | 0.00 | 0.00 | 0.00 | 48 | 1005.0 |
| 20260503212544 | 65 | 225 | 4.3 | 11.3 | 0.00 | 0.00 | 0.00 | 48 | 1004.7 |
| 20260503212044 | 66 | 207 | 4.3 | 11.3 | 0.00 | 0.00 | 0.00 | 49 | 1004.9 |
| 20260503211554 | 66 | 220 | 0.9 | 11.3 | 0.00 | 0.00 | 0.00 | 49 | 1005.0 |
| 20260503211044 | 65 | 205 | 2.6 | 16.5 | 0.00 | 0.00 | 0.00 | 51 | 1005.1 |
| 20260503210546 | 64 | 196 | 4.3 | 17.4 | 0.00 | 0.00 | 0.00 | 49 | 1005.0 |
| 20260503210052 | 65 | 234 | 5.2 | 17.4 | 0.00 | 0.00 | 0.00 | 49 | 1005.2 |
| 20260503205544 | 66 | 209 | 6.1 | 13.9 | 0.00 | 0.00 | 0.00 | 48 | 1005.2 |
| 20260503205046 | 66 | 229 | 6.1 | 13.9 | 0.00 | 0.00 | 0.00 | 46 | 1005.3 |
| 20260503204554 | 67 | 249 | 4.3 | 11.3 | 0.00 | 0.00 | 0.00 | 46 | 1005.3 |
| 20260503204045 | 66 | 234 | 3.5 | 17.4 | 0.00 | 0.00 | 0.00 | 49 | 1005.3 |